Location: Gro� Glienicke
(52.4675°N, 13.1079°E)
Time: 18:48:05
(UTC+00:00)

Cosmos 1151 Rocket - Pass Details

Date: 06 July 2020
Orbit: 591 x 617 km, 82.5° (Epoch: 11 August)

Event Time Altitude Azimuth Distance (km) Brightness Sun altitude
Rises 22:06:31 0° 351° (N) 2,885 8.4 -13.6°
Reaches altitude 10° 22:08:47 10° 355° (N) 1,972 7.0 -13.7°
Maximum altitude 22:13:06 61° 76° (ENE) 691 3.3 -13.9°
Enters shadow 22:15:46 22° 151° (SSE) 1,326 4.2 -14.0°
